Location: Wells
(51.2093°N, 2.6446°W)
Time: 06:22:02
(UTC+01:00)

PCSat - Pass Details

Date: 12 March 2026
Orbit: 780 x 790 km, 67.1° (Epoch: 13 April)

Event Time Altitude Azimuth Distance (km) Brightness Sun altitude
Exits shadow 03:47:13 - 322° (NW) 2,450 12.0 -25.7°
Reaches altitude 10° 03:47:38 10° 325° (NW) 2,363 12.0 -25.6°
Maximum altitude 03:50:39 15° 360° (N) 2,042 12.0 -25.2°
Drops below altitude 10° 03:53:41 10° 34° (NE) 2,365 12.8 -24.8°
Sets 03:57:15 0° 58° (ENE) 3,294 14.2 -24.3°
